Regional Weather Roundup
Issued by NWS

Home | Current Version | Previous Version | Text Only | Print | Product List | Glossary Off
Versions: 1 2 3 4 5 6 7 8 9 10 11 12 13 14 15 16 17 18 19 20 21 22 23 24 25 26 27 28 29 30 31 32 33 34 35 36 37 38 39 40 41 42 43 44 45 46 47 48 49 50

000
ASUS44 KMEG 220910
RWRTN
TENNESSEE HOURLY STATE WEATHER ROUNDUP
NATIONAL WEATHER SERVICE MEMPHIS TN
400 AM CDT TUE JUL 22 2014

TNZ002-004-019-021-049-052-054-088>092-221000-
WEST TENNESSEE

CITY           SKY/WX    TMP DP  RH WIND       PRES   REMARKS
MEMPHIS INTL   CLEAR     76  66  71 VRB5      30.06F
NWS MEMPHIS      N/A     67 N/A N/A MISG        N/A
JACKSON        CLEAR     67  65  93 CALM      30.07R
DYERSBURG      CLEAR     66  57  72 CALM      30.08S
UNION CITY     CLEAR     66  66 100 CALM      30.06S
PARIS          CLEAR     66  63  90 CALM      30.07S
LEXINGTON      MOCLDY    66  64  94 CALM      30.05S
SAVANNAH       CLEAR     68  68 100 CALM      30.06R
$$

TNZ008-025-027-028-033-062-065-066-221000-
NORTH MIDDLE TENNESSEE

CITY           SKY/WX    TMP DP  RH WIND       PRES   REMARKS
NASHVILLE      PTCLDY    73  71  93 CALM      30.07S
DICKSON        CLEAR     68  66  94 CALM      30.07S
PORTLAND       CLEAR     70  70 100 S3        30.07S
CLARKSVILLE    CLEAR     69  65  86 CALM      30.06S
LEBANON        CLEAR     71  69  93 CALM      30.06S
SMYRNA         CLEAR     71  71 100 CALM      30.08R FOG
MURFREESBORO   CLEAR     71  69  93 CALM      30.07R
COOKEVILLE     CLEAR     66  66 100 CALM      30.10R
GALLATIN       CLEAR     70  70 100 CALM      30.08S
CROSSVILLE     CLEAR     67  64  90 CALM      30.15R
$$

TNZ061-075-076-078-094-096-097-221000-
SOUTH MIDDLE TENNESSEE

CITY           SKY/WX    TMP DP  RH WIND       PRES   REMARKS
LEWISBURG      CLOUDY    70  68  93 CALM      30.07R
FAYETTEVILLE   MOCLDY    72  72 100 MISG      30.08S
TULLAHOMA      CLEAR     70  66  88 CALM      30.10S
WINCHESTER     CLEAR     70  70 100 CALM      30.09R
MCMINNVILLE    CLEAR     70  70 100 CALM      30.10R
COLUMBIA       PTCLDY    72  70  94 CALM      30.06R
SHELBYVILLE    CLEAR     72  72 100 CALM      30.09S
$$

TNZ017-018-042-046-047-221000-
NORTHEAST TENNESSEE

CITY           SKY/WX    TMP DP  RH WIND       PRES   REMARKS
TRI CITIES     PTCLDY    66  63  90 N3        30.14S
ELIZABETHTON   SUNNY     64  63  94 SE3       30.15S
$$

TNZ012-013-036-069-073-074-221000-
CENTRAL EAST TENNESSEE

CITY           SKY/WX    TMP DP  RH WIND       PRES   REMARKS
KNOXVILLE      MOCLDY    71  70  96 CALM      30.09S
OAK RIDGE      PTCLDY    73  71  93 CALM      30.11S
GATLINBURG     MOSUNNY   68  66  94 CALM      30.10S
MORRISTOWN     SUNNY     70  64  83 CALM      30.13R
$$

TNZ083-085-099-221000-
SOUTHEAST TENNESSEE

CITY           SKY/WX    TMP DP  RH WIND       PRES   REMARKS
CHATTANOOGA    MOCLDY    73  69  87 CALM      30.09S
$$

SKY/WX REPORTED AS FAIR MEANS FEW OR NO CLOUDS BELOW
12 THOUSAND FEET.




USA.gov is the U.S. government's official web portal to all federal, state and local government web resources and services.